Lid_Strength_Index
-1 -1 -1 1 7 7 9 9 7 8 8 7 6 6 6 6 7 8 5 5 4 1 0 -1 -2 -2 -2 -2 -1 -1 -1 -2 -2 -2 -2 -2 -2 -2 -2 -2 -1 -1 -1 -1 -1 -1 -2 -2 -1
-0 1 0 3 8 10 9 8 8 7 7 6 7 7 7 7 6 6 6 7 5 3 1 -0 -2 -2 -2 -1 -1 -1 -1 -1 -1 -2 -2 -2 -2 -2 -2 -1 -1 -1 -1 -1 -1 -1 -1 -2 -1
2 2 4 5 7 9 9 8 7 7 7 7 7 7 7 7 6 5 6 7 6 3 2 1 0 -0 -1 -1 -1 -0 0 -0 -1 -1 -1 -1 -1 -1 -1 -1 -2 -2 -2 -1 -1 -1 -1 -1 -1
2 3 5 7 9 8 8 7 7 8 8 7 7 7 8 6 6 6 7 8 8 5 3 2 2 1 1 1 0 -0 -0 -0 -1 -1 -1 -2 -0 1 0 0 0 0 -0 -1 -2 -2 -1 -1 -1
3 4 7 8 9 8 8 7 6 7 7 7 7 7 8 7 6 7 8 8 8 8 5 4 3 3 2 2 2 2 2 2 2 2 1 1 2 2 1 1 0 -0 0 0 -0 -1 -1 -1 -1
5 5 8 9 9 9 8 7 7 7 7 8 8 8 7 7 8 8 8 8 8 8 7 6 6 5 4 4 4 3 3 3 3 3 3 3 4 4 3 3 2 2 1 1 -0 -1 -0 0 -1
6 6 8 9 10 10 8 7 8 7 8 8 7 8 8 8 7 8 8 8 9 9 8 8 8 7 6 6 6 5 5 5 5 5 5 5 5 5 5 5 4 3 3 2 1 1 1 1 2
5 6 9 9 10 9 8 8 8 8 8 8 7 8 8 8 8 8 9 9 9 9 9 9 8 8 8 7 7 7 6 6 6 6 6 7 7 6 7 6 5 4 4 4 3 3 3 3 3
6 8 9 9 10 9 8 9 9 9 9 9 8 8 9 7 9 9 10 10 10 10 10 9 9 9 9 9 9 8 8 8 8 8 8 7 7 7 7 8 7 6 6 5 4 4 4 4 4
7 8 9 8 8 8 8 8 8 9 9 9 9 8 10 9 10 10 10 11 11 11 10 10 9 9 9 10 9 8 9 8 8 8 8 8 8 8 8 8 8 7 8 7 6 5 5 5 5
8 8 8 8 8 8 8 9 8 8 8 7 7 7 9 9 10 10 10 10 11 11 11 11 10 10 9 9 9 8 8 8 8 8 8 8 8 8 9 8 8 8 8 8 7 7 6 6 5
8 8 8 8 8 8 9 8 9 8 7 7 7 7 9 9 10 10 10 10 11 11 11 11 10 10 10 9 9 9 9 9 9 9 9 9 9 9 10 9 9 9 8 9 8 8 7 7 6
8 8 8 7 8 8 9 8 8 8 7 7 9 9 9 9 9 9 9 10 11 12 11 11 10 10 10 10 10 10 10 10 10 10 10 10 10 10 10 10 10 9 9 10 10 9 9 7 7
8 8 8 8 8 8 9 8 10 7 9 8 9 9 9 9 9 9 10 11 12 11 11 11 11 11 11 10 10 10 10 10 10 10 10 11 11 11 11 11 10 10 10 10 10 10 9 8 7
9 9 8 9 9 9 9 10 9 6 10 9 9 9 9 9 9 10 10 11 11 11 11 12 11 11 11 11 11 11 11 11 11 11 11 11 12 12 12 12 11 11 11 11 10 10 10 9 9
10 10 10 9 9 9 9 11 7 7 9 9 8 9 10 9 9 9 10 11 11 11 12 11 12 12 11 11 11 11 11 11 11 11 11 12 12 12 12 12 12 11 11 11 11 11 11 10 10
9 11 11 10 9 10 10 10 8 9 10 9 8 8 9 10 10 10 10 11 11 12 12 12 12 12 12 12 12 12 12 11 11 11 12 12 13 13 13 13 12 12 12 12 12 12 11 11 10
10 11 11 11 10 11 11 11 9 8 9 9 8 7 9 10 10 10 11 11 12 11 11 12 12 12 12 12 12 12 12 12 12 12 12 13 13 14 13 13 13 12 13 12 12 12 11 11 10
10 11 11 9 11 11 11 11 10 9 9 9 8 8 9 10 9 10 11 12 12 12 12 12 12 12 12 13 13 13 13 13 13 13 13 13 14 14 14 14 13 13 13 13 13 13 12 12 11
10 11 10 10 12 12 12 13 11 10 9 9 8 7 8 9 10 11 12 13 13 13 13 13 13 13 13 13 13 13 14 13 13 13 13 14 14 14 15 14 14 14 14 13 13 13 13 13 12
11 11 10 12 12 13 14 13 13 11 11 10 9 9 8 9 11 12 13 13 13 13 13 13 13 13 13 14 14 15 15 15 15 14 14 14 14 14 15 15 14 14 14 14 14 13 13 14 13
12 10 11 12 13 14 13 16 12 12 12 11 9 9 10 10 11 12 13 14 14 13 13 13 13 14 14 14 15 15 15 15 15 15 15 15 15 15 15 15 14 14 14 14 14 14 14 14 14
11 12 12 13 13 15 13 16 13 15 14 12 9 9 10 10 11 12 13 13 13 13 13 13 14 14 15 14 15 15 15 15 15 16 16 16 15 15 15 15 15 15 14 14 14 14 14 13 14
13 13 14 15 15 17 14 15 15 14 13 12 10 10 10 10 10 11 12 13 14 13 13 13 14 15 15 15 15 15 16 16 17 17 17 16 16 16 15 16 16 15 15 15 15 14 14 14 14
12 12 14 15 17 17 16 17 15 13 11 11 9 9 10 10 10 12 13 14 14 14 14 13 14 15 15 15 15 16 16 17 17 17 17 17 17 17 16 16 16 16 16 15 15 15 15 15 15
13 12 14 19 17 16 18 19 14 12 11 10 11 11 12 11 11 12 13 14 14 15 14 14 14 15 16 16 16 17 17 18 18 18 18 18 18 17 17 17 17 17 16 16 16 16 15 15 14
15 15 12 14 20 18 15 13 13 13 13 13 12 12 11 11 12 12 13 14 15 15 14 14 15 15 16 17 17 18 18 19 19 18 18 18 18 18 18 18 18 18 17 17 16 16 16 16 15
15 13 16 15 18 18 17 15 15 13 13 12 13 12 11 11 11 12 13 14 14 14 14 14 14 16 16 17 18 18 19 19 19 19 19 19 19 19 19 19 19 18 18 18 17 17 17 16 15
16 15 15 14 15 16 18 17 13 13 12 12 11 10 10 10 11 11 13 13 14 14 14 14 15 16 17 18 19 19 19 19 20 20 19 20 20 20 20 20 20 20 19 18 18 18 18 18 17
14 14 14 16 16 16 15 16 13 12 11 11 10 11 10 10 10 11 13 14 15 15 15 15 15 17 18 19 19 20 19 20 20 20 20 20 21 20 20 21 21 21 20 20 20 20 19 19 19